Showing default

TIANQI 32, 61198

Orbit data source: Space-Track

TIANQI 32, 61198 is a payload satellite owned by Guodian Gaokeji (CN) in LEO that was launched on Fri, 20 Sep 2024 UTC via a KUAIZHOU-1A launch vehicle from the Xichang Space Center, China (XSC). Payload-class satellites include a variety of spacecraft equipped with specific instruments for various scientific and technological missions. These include communications satellites like Starlink; space stations such as the ISS; scientific satellites like the Hubble; Earth observation satellites from companies like Planet Labs, Umbra, and HawkEye 360; GPS; miniature CubeSats for education and research; and military/defense satellites.

Loading next visibility...
Identifier
61198, 2024-170D
Orbit
LEO
Country
Flag of CNCN / PRC
Related business
Manufacturer
Shanghai ASES
Mission
Operational Commercial Communications
Bus & Motor
STARLIGHTB, Unknown motor
Mass
40 kg wet, ~40 kg dry
Launch date (UTC)
2024-09-20 (1 year ago)
Launch vehicle
KUAIZHOU-1A
Launch site
Xichang Space Center, China (XSC)
Object type
Payload
Rocket body
Debris
Shape & HBR
Box, 0.3 m
Radar Cross Section
0.195 m², Medium (>0.1 m² and < 1m²)

Expand to show TLE details & history
Last TLE update: 8 hours ago

TLE from 8 hours ago
0 TIANQI 32
1 61198U 24170D   25304.24314660  .00000090  00000-0  14997-3 0  9991
2 61198  44.8603  78.1897 0007807  75.8300 284.3398 13.99046391 52477
Epoch: 2025-10-31T05:50Z
TLE epoch observation values (Epoch: 2025-10-31T05:50:07.866Z)
Latitude
0.00001°
Longitude
-49.13344°
Altitude
895.681 km
Speed
7.406 km/s
True Right ascension
05h 12m 45s
True Declination
0° 00' 00"
Sunlit
Object was in full shadow at epoch
Visualization orbit readout
Latitude
Unknown
Longitude
Unknown
Altitude
Unknown
Speed
Unknown
Apparent Right ascension
Unknown
Apparent Declination
Unknown
Sunlit
N/A
Visualization observer readout
Local Sidereal Time
09:58:22
Azimuth
Unknown
Elevation
Unknown
Doppler factor
Unknown
Orbital elements
Apogee altitude
904.32 km
Perigee altitude
892.958 km
Semi-major axis
7,276.776 km
Eccentricity
0.00078
Inclination
44.8603°
RAAN
78.1897°
Arg. of periapsis
75.83°
True anomaly
284.2531°
Mean anomaly
284.3398°
Eccentric anomaly
284.29645°
Mean motion
3.49651 °/min
Orbital period
102.96 mins
BSTAR
0.00014997
Loading maneuver chart data...
Computing Atmospheric mass density...
Loading historical data...
Loading historical data...
Loading historical data...
Loading historical data...
Loading historical data...
Loading historical data...
Loading historical data...
Other satellites on launch #170 in the year 2024 (2024-09-20 UTC)

Documentation

Showing up to 5 results
|